Location: Auckland
(36.8670°S, 174.7670°E)
Time: 03:27:17
(UTC+12:00)

Tiros 1 despin weight - Pass Details

Date: 28 July 2019
Orbit: 594 x 642 km, 48.2° (Epoch: 20 August)

Event Time Altitude Azimuth Distance (km) Brightness Sun altitude
Rises 03:55:43 0° 236° (WSW) 2,864 - -41.4°
Reaches altitude 10° 03:58:00 10° 237° (WSW) 1,961 - -41.0°
Maximum altitude 04:02:31 82° 324° (NW) 622 - -40.1°
Drops below altitude 10° 04:07:03 10° 50° (NE) 1,970 - -39.2°
Exits shadow 04:07:55 - 51° (NE) 2,309 ? -39.0°
Sets 04:09:21 0° 51° (NE) 2,877 ? -38.7°
